WA6MHA-11 Weather Reports


Display with metric or nautical units.
time (UTC)temp
F
wind
direction
speed
MPH
gust
MPH
rain 1hr
in
rain 24hr
in
rain mn
in
humidity
%
barometer
mb
20230203005730 62 182 2.0 3.0 0.00 0.00 0.00 27 1492.0
20230203005329 63 180 2.0 3.0 0.00 0.00 0.00 27 1491.2
20230203004928 63 135 1.0 2.0 0.00 0.00 0.00 27 1490.5
20230203004526 64 105 1.0 3.0 0.00 0.00 0.00 27 1490.0
20230203003723 65 177 3.0 5.0 0.00 0.00 0.00 26 1488.9
20230203002520 66 137 0.0 0.0 0.00 0.00 0.00 25 1487.4
20230203002119 66 180 0.0 2.0 0.00 0.00 0.00 25 1486.8
20230203001717 66 184 1.0 1.0 0.00 0.00 0.00 25 1486.4
20230203000916 67 193 0.0 2.0 0.00 0.00 0.00 25 1485.4
20230202234507 68 145 1.0 3.0 0.00 0.00 0.00 26 1483.8
20230202233705 68 184 3.0 4.0 0.00 0.00 0.00 26 1483.5
20230202233303 68 189 1.0 4.0 0.00 0.00 0.00 26 1483.5
20230202232500 69 186 2.0 6.0 0.00 0.00 0.00 26 1483.5
20230202232059 69 180 4.0 6.0 0.00 0.00 0.00 26 1483.5
20230202231658 69 202 2.0 3.0 0.00 0.00 0.00 26 1483.4
20230202231257 68 191 2.0 4.0 0.00 0.00 0.00 26 1483.3
20230202230052 68 110 3.0 5.0 0.00 0.00 0.00 26 1483.1
20230202225250 68 182 1.0 6.0 0.00 0.00 0.00 26 1483.1
20230202224046 69 175 2.0 3.0 0.00 0.00 0.00 26 1483.7
20230202222040 68 94 3.0 6.0 0.00 0.00 0.00 26 1484.6
20230202221237 70 81 1.0 3.0 0.00 0.00 0.00 26 1485.2
20230202220837 70 189 4.0 5.0 0.00 0.00 0.00 26 1485.4
20230202220435 70 180 5.0 6.0 0.00 0.00 0.00 26 1485.6
20230202215231 69 180 4.0 5.0 0.00 0.00 0.00 26 1486.4
20230202214027 69 126 8.0 8.0 0.00 0.00 0.00 27 1487.4
20230202212824 69 90 1.0 4.0 0.00 0.00 0.00 27 1489.1
20230202212422 69 215 2.0 8.0 0.00 0.00 0.00 27 1489.6
20230202211620 69 130 4.0 7.0 0.00 0.00 0.00 28 1490.9
20230202210817 68 126 5.0 6.0 0.00 0.00 0.00 28 1491.9
20230202210014 68 132 5.0 8.0 0.00 0.00 0.00 28 1493.1
20230202205613 68 119 5.0 7.0 0.00 0.00 0.00 29 1493.8
20230202205212 68 76 3.0 5.0 0.00 0.00 0.00 29 1494.3
20230202204811 68 90 2.0 6.0 0.00 0.00 0.00 29 1495.2
20230202203205 69 108 4.0 5.0 0.00 0.00 0.00 30 1498.6
20230202202003 70 45 1.0 3.0 0.00 0.00 0.00 31 1501.6
20230202201601 69 80 1.0 4.0 0.00 0.00 0.00 31 1502.5
20230202201159 69 191 3.0 5.0 0.00 0.00 0.00 32 1503.4
20230202200400 68 180 3.0 5.0 0.00 0.00 0.00 32 1505.6
20230202194751 67 191 3.0 6.0 0.00 0.00 0.00 33 1510.2
20230202194350 67 128 5.0 5.0 0.00 0.00 0.00 34 1511.6
20230202193147 66 135 1.0 5.0 0.00 0.00 0.00 34 1515.3
20230202192343 65 74 4.0 5.0 0.00 0.00 0.00 35 1517.8
20230202191140 64 92 1.0 4.0 0.00 0.00 0.00 36 1521.8
20230202190338 63 353 1.0 2.0 0.00 0.00 0.00 36 1524.3
20230202185935 63 96 1.0 4.0 0.00 0.00 0.00 37 1525.4
20230202185536 62 45 1.0 4.0 0.00 0.00 0.00 37 1526.8
20230202184331 61 335 1.0 3.0 0.00 0.00 0.00 38 1530.5
20230202183528 61 195 1.0 2.0 0.00 0.00 0.00 38 1532.9
20230202183128 60 108 1.0 2.0 0.00 0.00 0.00 39 1534.1
20230202182726 59 180 2.0 2.0 0.00 0.00 0.00 39 1535.3
20230202182325 59 15 0.0 2.0 0.00 0.00 0.00 39 1536.5
20230202181923 58 346 1.0 2.0 0.00 0.00 0.00 40 1537.7
20230202181523 58 29 1.0 3.0 0.00 0.00 0.00 40 1539.0
20230202181124 58 27 1.0 3.0 0.00 0.00 0.00 40 1540.2
20230202180720 58 65 1.0 4.0 0.00 0.00 0.00 41 1541.6
20230202180318 58 87 1.0 1.0 0.00 0.00 0.00 41 1542.8
20230202175516 56 303 1.0 1.0 0.00 0.00 0.00 41 1545.1
20230202174314 54 315 0.0 2.0 0.00 0.00 0.00 42 1548.4
20230202173910 53 0 0.0 1.0 0.00 0.00 0.00 43 1549.4
20230202173509 53 167 1.0 2.0 0.00 0.00 0.00 43 1550.3
20230202172707 52 182 0.0 1.0 0.00 0.00 0.00 43 1552.2
20230202172310 51 180 0.0 1.0 0.00 0.00 0.00 44 1553.1
20230202171904 50 180 1.0 1.0 0.00 0.00 0.00 44 1553.9
20230202171102 49 0 0.0 0.0 0.00 0.00 0.00 45 1555.8
20230202170259 47 0 1.0 2.0 0.00 0.00 0.00 45 1557.5
20230202165859 46 0 1.0 2.0 0.00 0.00 0.00 46 1558.3
20230202165456 45 344 1.0 2.0 0.00 0.00 0.00 46 1559.1
20230202165056 45 348 1.0 2.0 0.00 0.00 0.00 46 1559.9
20230202164654 45 330 1.0 2.0 0.00 0.00 0.00 46 1560.5
20230202164253 44 112 1.0 3.0 0.00 0.00 0.00 46 1561.0
20230202163852 43 315 1.0 3.0 0.00 0.00 0.00 46 1561.6
20230202161043 40 315 2.0 2.0 0.00 0.00 0.00 46 1564.8
20230202160240 40 315 1.0 2.0 0.00 0.00 0.00 46 1565.4
20230202154309 35 105 0.0 1.0 0.00 0.00 0.00 46 1566.2
20230202154233 35 105 0.0 1.0 0.00 0.00 0.00 46 1566.2
20230202153431 35 112 2.0 2.0 0.00 0.00 0.00 46 1566.5
20230202145819 32 112 1.0 2.0 0.00 0.00 0.00 45 1566.2
20230202145418 32 112 1.0 2.0 0.00 0.00 0.00 45 1566.0
20230202145017 31 112 1.0 3.0 0.00 0.00 0.00 45 1565.9
20230202144616 31 337 1.0 2.0 0.00 0.00 0.00 45 1565.6
20230202144215 31 0 1.0 2.0 0.00 0.00 0.00 45 1565.5
20230202143813 31 337 0.0 1.0 0.00 0.00 0.00 45 1565.5
20230202143412 31 337 0.0 1.0 0.00 0.00 0.00 45 1565.4
20230202141004 31 0 2.0 2.0 0.00 0.00 0.00 45 1564.4
20230202135839 31 112 2.0 4.0 0.00 0.00 0.00 45 1563.9
20230202135800 31 112 2.0 4.0 0.00 0.00 0.00 45 1563.9
20230202135400 31 112 2.0 4.0 0.00 0.00 0.00 45 1563.7
20230202134556 31 112 1.0 1.0 0.00 0.00 0.00 45 1563.5
20230202134155 32 0 0.0 1.0 0.00 0.00 0.00 44 1563.3
20230202133754 32 112 0.0 0.0 0.00 0.00 0.00 44 1563.2
20230202132551 32 225 0.0 1.0 0.00 0.00 0.00 44 1562.8
20230202131747 32 180 1.0 1.0 0.00 0.00 0.00 45 1562.6
20230202130946 32 225 0.0 0.0 0.00 0.00 0.00 45 1562.2
20230202130143 32 225 1.0 3.0 0.00 0.00 0.00 45 1561.9
20230202125741 32 225 1.0 1.0 0.00 0.00 0.00 45 1561.8
20230202125340 32 225 1.0 1.0 0.00 0.00 0.00 44 1561.6
20230202122932 32 225 0.0 0.0 0.00 0.00 0.00 44 1560.6
20230202122531 32 315 0.0 0.0 0.00 0.00 0.00 44 1560.3
20230202121327 32 0 1.0 2.0 0.00 0.00 0.00 44 1559.7
20230202120524 32 315 0.0 0.0 0.00 0.00 0.00 44 1559.4
20230202120123 32 315 0.0 0.0 0.00 0.00 0.00 44 1559.1
20230202115722 32 112 0.0 2.0 0.00 0.00 0.00 44 1558.9
20230202114518 32 315 2.0 2.0 0.00 0.00 0.00 44 1558.5
20230202113314 32 315 1.0 1.0 0.00 0.00 0.00 44 1558.1
20230202112512 32 315 0.0 1.0 0.00 0.00 0.00 44 1557.9
20230202112146 32 112 0.0 1.0 0.00 0.00 0.00 44 1557.9
20230202112110 32 112 0.0 1.0 0.00 0.00 0.00 44 1557.9
20230202110509 33 225 2.0 2.0 0.00 0.00 0.00 44 1557.3
20230202110104 33 225 1.0 1.0 0.00 0.00 0.00 44 1557.2
20230202105305 33 0 1.0 1.0 0.00 0.00 0.00 44 1556.9
20230202104900 33 315 1.0 4.0 0.00 0.00 0.00 44 1556.8
20230202104058 33 45 4.0 4.0 0.00 0.00 0.00 44 1556.5
20230202103255 33 45 2.0 3.0 0.00 0.00 0.00 43 1556.1
20230202102853 33 45 2.0 3.0 0.00 0.00 0.00 43 1556.1
20230202100847 33 225 0.0 1.0 0.00 0.00 0.00 43 1555.2
20230202100045 33 315 1.0 2.0 0.00 0.00 0.00 43 1554.8
20230202095645 34 0 1.0 1.0 0.00 0.00 0.00 43 1554.5
20230202095243 33 112 0.0 1.0 0.00 0.00 0.00 43 1554.4
20230202094038 34 112 1.0 2.0 0.00 0.00 0.00 43 1554.0
20230202093637 34 112 2.0 2.0 0.00 0.00 0.00 43 1553.8
20230202092032 34 315 0.0 1.0 0.00 0.00 0.00 42 1552.9
20230202091631 34 0 0.0 1.0 0.00 0.00 0.00 42 1552.7
20230202091229 34 45 1.0 1.0 0.00 0.00 0.00 42 1552.5
20230202090427 34 315 0.0 1.0 0.00 0.00 0.00 42 1551.9
20230202090026 34 315 0.0 1.0 0.00 0.00 0.00 42 1551.6
20230202085223 34 112 0.0 1.0 0.00 0.00 0.00 42 1551.0
20230202084822 34 0 0.0 0.0 0.00 0.00 0.00 42 1550.8
20230202084421 35 315 0.0 1.0 0.00 0.00 0.00 42 1550.5
20230202084020 35 225 0.0 1.0 0.00 0.00 0.00 42 1550.4
20230202083618 35 112 1.0 1.0 0.00 0.00 0.00 42 1550.2
20230202083216 35 112 0.0 1.0 0.00 0.00 0.00 42 1550.0
20230202082815 35 112 1.0 1.0 0.00 0.00 0.00 42 1549.8
20230202082414 35 45 0.0 0.0 0.00 0.00 0.00 42 1549.7
20230202082014 35 45 0.0 1.0 0.00 0.00 0.00 42 1549.6
20230202081211 36 209 1.0 1.0 0.00 0.00 0.00 42 1549.2
20230202080408 36 225 1.0 1.0 0.00 0.00 0.00 42 1548.6
20230202075641 36 112 2.0 2.0 0.00 0.00 0.00 42 1548.3
20230202075605 36 112 2.0 2.0 0.00 0.00 0.00 42 1548.3
20230202074805 36 112 1.0 2.0 0.00 0.00 0.00 42 1547.9
20230202073159 36 112 0.0 1.0 0.00 0.00 0.00 41 1546.6
20230202072756 37 0 0.0 1.0 0.00 0.00 0.00 41 1546.3
20230202071959 37 315 0.0 0.0 0.00 0.00 0.00 41 1545.8
20230202071552 37 315 0.0 1.0 0.00 0.00 0.00 41 1545.5
20230202071154 37 112 0.0 2.0 0.00 0.00 0.00 41 1545.0
20230202070750 37 0 2.0 3.0 0.00 0.00 0.00 41 1544.9
20230202065948 37 225 0.0 0.0 0.00 0.00 0.00 41 1544.5
20230202065546 37 225 0.0 1.0 0.00 0.00 0.00 41 1544.3
20230202064744 38 0 0.0 3.0 0.00 0.00 0.00 41 1543.8
20230202063941 38 225 1.0 2.0 0.00 0.00 0.00 40 1543.4
20230202063540 38 216 1.0 2.0 0.00 0.00 0.00 40 1543.0
20230202063138 38 225 1.0 1.0 0.00 0.00 0.00 40 1542.7
20230202062737 38 0 1.0 2.0 0.00 0.00 0.00 40 1542.3
20230202062336 38 0 1.0 1.0 0.00 0.00 0.00 40 1542.1
20230202061935 38 180 1.0 3.0 0.00 0.00 0.00 40 1542.0
20230202061534 39 112 0.0 1.0 0.00 0.00 0.00 40 1541.5
20230202061132 39 112 1.0 1.0 0.00 0.00 0.00 40 1541.2
20230202060730 39 0 0.0 2.0 0.00 0.00 0.00 40 1540.8
20230202060329 39 0 1.0 3.0 0.00 0.00 0.00 40 1540.4
20230202055928 39 0 2.0 2.0 0.00 0.00 0.00 39 1540.1
20230202055527 39 112 0.0 0.0 0.00 0.00 0.00 39 1539.8
20230202055126 39 112 0.0 0.0 0.00 0.00 0.00 39 1539.5
20230202054725 39 112 0.0 1.0 0.00 0.00 0.00 39 1539.0
20230202054323 40 112 0.0 0.0 0.00 0.00 0.00 39 1538.7
20230202053522 40 112 0.0 1.0 0.00 0.00 0.00 39 1538.0
20230202053120 40 225 1.0 2.0 0.00 0.00 0.00 39 1537.7
20230202052317 40 112 0.0 1.0 0.00 0.00 0.00 39 1536.9
20230202051915 40 225 1.0 2.0 0.00 0.00 0.00 39 1536.7
20230202051113 40 315 1.0 2.0 0.00 0.00 0.00 38 1535.7
20230202050712 40 315 1.0 1.0 0.00 0.00 0.00 38 1535.1
20230202045107 40 315 1.0 1.0 0.00 0.00 0.00 38 1533.3
20230202044309 40 315 0.0 0.0 0.00 0.00 0.00 37 1532.4
20230202043503 41 315 1.0 1.0 0.00 0.00 0.00 37 1531.4
20230202041856 42 180 0.0 1.0 0.00 0.00 0.00 37 1529.4
20230202041455 42 193 1.0 3.0 0.00 0.00 0.00 36 1528.7
20230202041054 42 195 1.0 1.0 0.00 0.00 0.00 36 1528.2
20230202040251 43 112 0.0 0.0 0.00 0.00 0.00 36 1527.1
20230202035048 43 112 0.0 1.0 0.00 0.00 0.00 36 1525.5
20230202034647 43 315 0.0 1.0 0.00 0.00 0.00 35 1525.0
20230202033844 44 0 1.0 1.0 0.00 0.00 0.00 35 1523.5
20230202033442 44 45 1.0 1.0 0.00 0.00 0.00 35 1522.8
20230202031837 45 315 1.0 1.0 0.00 0.00 0.00 34 1520.1
20230202031436 45 315 1.0 1.0 0.00 0.00 0.00 34 1519.5
20230202031034 46 270 0.0 1.0 0.00 0.00 0.00 34 1518.9
20230202030232 46 112 0.0 0.0 0.00 0.00 0.00 33 1517.3
20230202025831 46 112 0.0 0.0 0.00 0.00 0.00 33 1516.7
20230202025429 47 112 0.0 0.0 0.00 0.00 0.00 33 1515.9
20230202024627 48 112 0.0 1.0 0.00 0.00 0.00 32 1514.4
20230202024226 48 112 1.0 1.0 0.00 0.00 0.00 32 1513.6
20230202023825 49 180 1.0 1.0 0.00 0.00 0.00 32 1512.7
20230202023423 49 180 1.0 1.0 0.00 0.00 0.00 32 1511.9
20230202023022 49 112 1.0 1.0 0.00 0.00 0.00 31 1511.0
20230202022620 49 112 1.0 1.0 0.00 0.00 0.00 31 1510.2
20230202021818 49 112 1.0 1.0 0.00 0.00 0.00 31 1508.5
20230202021417 50 112 1.0 1.0 0.00 0.00 0.00 30 1507.7
20230202021016 50 112 0.0 1.0 0.00 0.00 0.00 30 1506.8
20230202020614 51 112 1.0 1.0 0.00 0.00 0.00 30 1506.0
20230202020214 51 112 0.0 1.0 0.00 0.00 0.00 30 1505.0
20230202015414 52 112 1.0 2.0 0.00 0.00 0.00 29 1503.2
20230202013003 55 90 1.0 1.0 0.00 0.00 0.00 27 1497.9
20230202012602 55 112 3.0 3.0 0.00 0.00 0.00 27 1497.1
20230202012200 56 112 3.0 3.0 0.00 0.00 0.00 27 1496.3